#timestamp,LO_Frequency,Hit 
1502157615.4,286047032.7,N
1502157635.2,286047030.2,N
1502157655.0,286047030.2,N
1502157655.9,286047030.2,N
1502157675.8,286047032.1,N
1502157695.6,286047033.7,N
1502157715.4,286047034.6,N
1502157735.3,286047032.1,N
1502157755.1,286047032.0,N
1502157756.0,286047032.0,N
1502157775.8,286047031.7,N
1502157795.7,286047034.6,N
1502157815.5,286047034.4,N
1502157835.3,286047035.9,N
1502157855.1,286047035.1,N
1502157875.9,286047034.1,N
1502157895.7,286047035.1,N
1502157915.5,286047036.4,N
1502157935.4,286047033.6,N
1502157955.2,286047033.6,N
1502157975.0,286047034.2,N
1502157975.9,286047034.2,N
1502157995.8,286047032.4,N
1502158015.6,286047029.4,N
1502158035.4,286047030.6,N
1502158055.3,286047032.4,N
1502158075.1,286047036.3,N
1502158076.0,286047036.3,N
1502158095.8,286047037.8,N
1502158115.7,286047037.0,N
1502158135.5,286047039.3,N
1502158155.3,286047038.4,N
1502158175.1,286047036.9,N
1502158195.9,286047038.9,N
1502158215.7,286047038.5,N
1502158235.5,286047037.9,N
1502158255.4,286047037.4,N
1502158275.2,286047040.9,N
1502158295.0,286047038.7,N
1502158295.9,286047038.7,N
1502158315.8,286047040.8,N
1502158335.6,286047042.4,N
1502158355.4,286047039.7,N
1502158375.3,286047040.9,N
1502158395.1,286047038.8,N
1502158396.0,286047038.8,N
1502158415.8,286047038.1,N
1502158435.7,286047040.6,N
1502158455.5,286047039.9,N
1502158475.3,286047041.0,N
1502158495.1,286047041.0,N
1502158515.9,286047039.8,N
1502158535.7,286047040.1,N
1502158555.5,286047040.0,N
1502158575.4,286047040.1,N
1502158595.2,286047039.7,N
1502158615.0,286047041.9,N
1502158615.9,286047041.9,N
1502158635.8,286047043.8,N
1502158655.6,286047045.7,N
1502158675.4,286047045.9,N
1502158695.3,286047041.6,N
1502158715.1,286047040.0,N
1502158716.0,286047040.0,N
1502158735.8,286047042.2,N
1502158755.6,286047045.6,N
1502158775.5,286047044.2,N
1502158795.3,286047045.1,N
1502158815.1,286047045.8,N
1502158835.9,286047046.0,N
1502158855.7,286047045.9,N
1502158875.5,286047045.0,N
1502158895.4,286047047.0,N
1502158915.2,286047043.2,N
1502158935.0,286047036.8,N
1502158935.9,286047036.8,N
1502158955.8,286047036.8,N
1502158975.6,286047039.8,N
1502158995.4,286047040.2,N
1502159015.3,286047038.6,N
1502159035.1,286047035.1,N
1502159036.0,286047035.1,N
1502159055.8,286047036.6,N
1502159075.7,286047040.8,N
1502159095.5,286047042.5,N
1502159115.3,286047039.6,N
1502159135.1,286047036.4,N
1502159155.9,286047035.0,N
1502159175.7,286047037.1,N
1502159195.5,286047037.4,N
1502159215.4,286047037.4,N
1502159235.2,286047037.6,N
1502159255.0,286047040.7,N
1502159255.9,286047040.7,N
1502159275.8,286047042.7,N
1502159295.6,286047042.9,N
1502159315.4,286047042.1,N
1502159335.3,286047044.0,N
1502159355.1,286047045.7,N
1502159356.0,286047045.7,N
1502159375.8,286047043.7,N
1502159395.6,286047045.7,N
1502159415.5,286047039.9,N
1502159435.3,286047043.6,N
1502159455.1,286047041.9,N
1502159475.9,286047042.3,N
1502159495.7,286047043.1,N
1502159515.5,286047045.2,N
1502159535.4,286047045.0,N
1502159555.2,286047040.3,N
1502159575.0,286047036.5,N
1502159575.9,286047036.5,N
1502159595.8,286047035.4,N
1502159615.6,286047036.2,N
1502159635.4,286047035.7,N
1502159655.3,286047035.2,N
1502159675.1,286047033.4,N
1502159676.0,286047033.4,N
1502159695.8,286047039.4,N
1502159715.6,286047038.6,N
1502159735.5,286047041.0,N
1502159755.3,286047036.6,N
1502159775.1,286047037.0,N
1502159795.9,286047037.8,N
1502159815.7,286047040.9,N
1502159835.5,286047040.1,N
1502159855.4,286047037.7,N
1502159875.2,286047036.3,N
1502159895.0,286047033.6,N
1502159895.9,286047033.6,N
1502159915.8,286047032.4,N
1502159935.6,286047032.4,N
1502159955.4,286047035.1,N
1502159975.3,286047038.4,N
1502159995.1,286047039.1,N
1502159996.0,286047039.1,N
1502160015.8,286047039.4,N
1502160035.6,286047042.8,N
1502160055.5,286047039.9,N
1502160075.3,286047043.2,N
1502160095.1,286047047.1,N
1502160115.1,286047047.5,N
1502160116.0,286047047.5,N
1502160135.8,286047046.2,N
1502160155.6,286047047.2,N
1502160175.5,286047047.5,N
1502160195.3,286047042.2,N
1502160215.1,286047040.8,N
1502160235.8,286047040.8,N
1502160255.7,286047042.0,N
1502160275.5,286047040.9,N
1502160295.7,286047040.1,N
1502160315.5,286047042.4,N
1502160335.3,286047040.0,N
1502160355.2,286047039.8,N
1502160375.9,286047043.2,N
1502160395.7,286047046.4,N
1502160415.5,286047046.8,N
1502160435.4,286047044.5,N
1502160455.2,286047043.5,N
1502160475.0,286047046.0,N
1502160475.9,286047046.0,N
1502160495.8,286047044.6,N
1502160515.6,286047044.6,N
1502160535.4,286047045.8,N
1502160555.3,286047047.1,N
1502160575.1,286047050.8,N
1502160576.0,286047050.8,N
1502160595.8,286047048.0,N
1502160615.7,286047045.4,N
1502160635.5,286047047.1,N
1502160655.3,286047048.3,N
1502160675.2,286047050.6,N
1502160695.9,286047052.3,N
1502160715.7,286047051.5,N
1502160735.5,286047055.0,N
1502160755.4,286047049.8,N
1502160775.2,286047049.7,N
1502160795.0,286047050.8,N
1502160795.9,286047050.8,N
1502160815.8,286047049.4,N
1502160835.6,286047052.6,N
1502160855.4,286047055.6,N
1502160875.3,286047056.9,N
1502160895.1,286047056.2,N
1502160896.0,286047056.2,N
1502160915.8,286047056.2,N
1502160935.7,286047058.7,N
1502160955.1,286047058.6,N
1502160975.9,286047058.0,N
1502160995.6,286047058.1,N
1502161015.5,286047057.5,N
1502161035.3,286047057.5,N
1502161055.1,286047056.6,N
1502161075.8,286047050.1,N
1502161095.7,286047048.5,N
1502161115.5,286047049.0,N
1502161135.3,286047047.9,N
1502161155.2,286047050.1,N
1502161175.9,286047046.6,N
1502161195.7,286047050.5,N
